Weather Roundup
Issued by NWS

Home | Current Version | Previous Version | Graphics & Text | Print | Product List | Glossary Off
Versions: 1 2 3 4 5 6 7 8 9 10 11 12 13 14 15 16 17 18 19 20 21 22 23 24 25 26 27 28 29 30 31 32 33 34 35 36 37 38 39 40 41 42 43 44 45 46 47 48 49 50

000
NZUS93 KARX 180610
HRRWXR

CURRENT HOURLY OBSERVATIONS ACROSS
MUCH OF THE UPPER MISSISSIPPI VALLEY
NATIONAL WEATHER SERVICE LA CROSSE WI
100 AM CDT FRI APR 18 2014


...SOUTHEAST MINNESOTA...


CITY           SKY/WX    TMP DP  RH WIND       PRES   REMARKS
ROCHESTER      FAIR      30  26  85 S3        30.31R FOG
ROCHESTER/MAYO FAIR      31  26  82 CALM      30.31F
WINONA         FAIR      32  28  86 CALM      30.34S
AUSTIN         FAIR      28  27  93 CALM      30.32R FOG
ALBERT LEA     FAIR      28  28 100 CALM      30.31S FOG
DODGE CENTER   FAIR      32  30  93 S5        30.31R WCI  27
PRESTON        FAIR      32  28  84 CALM      30.31S
OWATONNA       FAIR      30  27  86 CALM      30.32R FOG
FARIBAULT      FAIR      32  27  80 CALM      30.32S HAZE
$$

...ELSEWHERE IN MINNESOTA...


CITY           SKY/WX    TMP DP  RH WIND       PRES   REMARKS
MINNEAPOLIS    FAIR      33  26  75 CALM      30.33R
INTNL FALLS    FAIR      21  17  84 CALM      30.30S
DULUTH         FAIR      24  18  77 CALM      30.29R
RED WING       FAIR      27  25  93 CALM      30.32S
REDWOOD FALLS  FAIR      30  24  78 CALM      30.31F
MANKATO        FAIR      30  27  86 CALM      30.33R
WORTHINGTON    MOCLDY    30  23  74 E5        30.29S WCI  25
FAIRMONT       FAIR      28  27  93 CALM      30.32S
$$

...SOUTHWEST WISCONSIN...


CITY           SKY/WX    TMP DP  RH WIND       PRES   REMARKS
LA CROSSE      MOCLDY    37  26  64 N6        30.33R WCI  32
PRAIRIE DU CHI FAIR      32  28  88 CALM      30.32R
BOSCOBEL       FAIR      30  27  88 CALM      30.32R FOG
LONE ROCK      FAIR      36  30  79 CALM      30.31R
PLATTEVILLE    FAIR      33  30  89 N5        30.31R WCI  28
FORT MC COY    CLOUDY    36  27  71 N8        30.33R WCI  29
CAMP DOUGLAS   CLOUDY    35  30  81 NW7       30.30S WCI  29
VIROQUA        FAIR      33  29  86 CALM      30.30R
WIS DELLS      FAIR      30  28  92 CALM      30.29S
$$

...ELSEWHERE IN WISCONSIN...


CITY           SKY/WX    TMP DP  RH WIND       PRES   REMARKS
MILWAUKEE      MOCLDY    43  35  73 N6        30.28R
MADISON        FAIR      33  30  88 NW3       30.30R
GREEN BAY      CLOUDY    37  33  85 NW3       30.29R
EAU CLAIRE     FAIR      25  24  96 CALM      30.32R
BLACK RVR FLS  FAIR      30  25  82 CALM      30.32S
MEDFORD        CLOUDY    31  25  76 CALM      30.29S
WAUSAU         CLOUDY    34  25  69 NW5       30.28R WCI  30
WIS RAPIDS     CLOUDY    35  27  72 NW3       30.31S
MARSHFIELD     CLOUDY    34  26  72 N6        30.29S WCI  29
RICE LAKE      FAIR      25  23  95 CALM      30.33S FOG
$$

...NORTHEAST IOWA...


CITY           SKY/WX    TMP DP  RH WIND       PRES   REMARKS
WATERLOO       FAIR      30  27  88 N3        30.32R
DUBUQUE        FAIR      34  30  85 N9        30.30R WCI  27
DECORAH        MOCLDY    32  28  86 NW3       30.31R
MASON CITY     FAIR      26  24  92 CALM      30.33R FOG
CHARLES CITY   FAIR      32  28  86 NE5       30.32F WCI  27
OELWEIN        FAIR     N/A N/A N/A N6        30.32R
$$

...ELSEWHERE IN IOWA...


CITY           SKY/WX    TMP DP  RH WIND       PRES   REMARKS
DES MOINES     FAIR      41  31  67 E8        30.30R
IOWA CITY      FAIR      38  32  79 N8        30.32R WCI  32
FORT DODGE     FAIR      30  25  80 E6        30.31S WCI  24
MARSHALLTOWN   FAIR      31  28  89 NE7       30.31R WCI  24
CEDAR RAPIDS   FAIR      32  27  81 N8        30.30S WCI  25
$$

...NORTHERN ILLINOIS...


CITY           SKY/WX    TMP DP  RH WIND       PRES   REMARKS
CHICAGO-OHARE  CLOUDY    47  36  65 SE6       30.26R
DUPAGE         FAIR      48  37  65 W7        30.26R
CHICAGO-MIDWAY CLOUDY    50  39  66 E3        30.26R
MOLINE         FAIR      42  33  70 NW6       30.29R
ROCKFORD       MOCLDY    43  34  70 N14       30.30R
STERLING       FAIR      43  34  70 N9        30.28R
PEORIA         CLOUDY    48  36  63 CALM      30.29R
$$

NOTE: "FAIR" INDICATES FEW OR NO CLOUDS BELOW 12,000 FEET WITH NO
SIGNIFICANT WEATHER AND/OR OBSTRUCTIONS TO VISIBILITY. WIND
SPEEDS ARE IN MILES-PER-HOUR.



USA.gov is the U.S. government's official web portal to all federal, state and local government web resources and services.